Temp
36 36 35 37 37 37 37 36 33 30 34 41 41 44 44 45 44 44 44 43 43 44 44 45 45 46 46 47 48 49 49 50 50 51 52 53 54 55
35 35 36 36 36 37 36 37 35 33 30 39 40 43 43 44 44 43 43 41 42 43 43 43 44 45 46 46 47 48 48 49 50 51 52 52 53 54
35 34 34 36 35 36 36 36 35 34 30 35 39 41 41 41 43 44 44 43 44 43 43 43 43 44 45 46 46 47 48 48 48 49 50 51 52 52
33 33 33 35 34 36 35 35 35 36 33 30 35 37 39 41 42 41 42 44 44 44 43 43 43 44 45 45 46 46 46 47 47 48 48 49 49 50
33 32 32 33 33 34 35 35 35 35 34 31 31 36 38 40 40 41 42 43 44 43 43 42 43 43 44 45 45 45 45 46 46 46 47 47 48 49
33 33 33 32 32 33 34 34 34 33 33 31 30 33 36 39 40 37 37 42 42 45 45 44 43 43 43 44 44 44 44 45 45 46 46 46 46 47
34 34 34 34 34 34 33 33 34 33 33 32 31 32 33 34 35 38 37 39 41 43 42 44 44 44 44 44 43 42 43 43 44 45 45 46 46 46
31 33 34 34 34 35 36 36 34 29 31 32 33 31 34 36 37 37 36 35 33 43 41 41 44 43 44 45 44 44 43 43 43 44 44 45 45 45
32 33 33 35 35 35 36 37 37 37 37 33 31 32 32 36 37 35 36 36 35 40 39 35 41 41 45 47 45 44 43 43 43 43 44 44 44 45
33 33 32 33 35 35 34 34 35 37 37 39 37 37 38 39 39 38 38 37 39 39 39 31 39 39 44 46 45 45 44 43 43 43 43 44 44 44
33 35 35 35 36 36 33 31 33 35 39 39 39 39 40 39 38 36 33 32 32 35 41 37 37 38 41 42 45 44 44 44 43 43 43 43 43 44
34 35 35 35 36 36 34 32 30 33 36 37 38 39 39 40 39 38 36 31 32 30 37 34 35 36 31 40 41 43 44 44 43 43 43 43 44 44
31 32 35 36 36 36 37 34 33 36 34 32 33 33 33 34 37 38 38 35 31 30 37 36 32 32 31 31 36 39 41 42 42 43 42 43 43 43
31 33 35 36 36 36 36 34 33 34 34 33 33 33 34 35 36 37 37 37 37 34 36 36 30 30 29 28 29 36 38 40 41 40 41 42 42 42
34 35 35 36 36 35 35 34 34 33 32 30 29 30 32 34 34 33 34 34 34 34 36 35 32 31 30 28 28 31 32 36 39 38 39 39 39 40
33 34 35 35 34 33 32 32 32 31 29 28 28 30 31 30 29 31 29 30 28 29 34 34 34 32 29 30 30 29 32 30 36 38 38 38 39 40
32 32 30 30 30 30 30 30 29 29 27 28 26 26 27 27 28 30 29 28 26 26 28 32 34 34 32 30 27 30 31 32 35 36 36 33 35 36
31 28 27 27 27 27 27 26 28 27 27 27 26 25 25 26 26 27 28 27 26 27 27 30 30 29 30 32 34 29 31 32 34 35 35 32 32 38
27 27 26 26 25 25 25 25 24 26 27 26 25 25 25 24 25 25 26 26 26 27 28 30 29 27 23 22 32 38 32 32 32 32 33 32 31 34
27 25 24 25 25 24 24 23 24 24 24 24 24 24 24 24 23 23 24 24 25 26 26 28 28 27 25 24 26 31 35 31 31 30 30 33 34 37
24 24 24 24 24 24 23 23 23 22 23 22 22 22 23 22 22 23 24 25 26 25 24 26 30 34 31 30 25 27 32 35 34 30 30 28 27 29
23 23 23 24 24 24 23 23 22 22 22 22 22 22 23 23 22 22 23 23 24 25 25 27 29 29 27 25 23 25 28 32 35 35 35 33 27 22
22 23 23 23 24 23 23 23 22 22 22 22 21 22 22 21 23 23 24 24 24 23 24 23 26 27 26 26 26 25 26 27 29 28 30 34 34 34
MSLP
1029.05 1029.05 1029.12 1029.13 1029.29 1029.22 1029.05 1028.76 1028.36 1027.57 1026.64 1026.35 1026.59 1026.86 1026.98 1026.92 1026.63 1026.54 1026.35 1026.10 1025.89 1025.84 1025.62 1025.48 1025.31 1025.17 1024.94 1024.60 1024.35 1024.03 1023.82 1023.63 1023.39 1023.08 1022.94 1022.65 1022.40 1022.26
1029.13 1028.98 1028.94 1028.87 1028.90 1028.92 1028.84 1028.68 1028.56 1028.22 1027.47 1026.78 1026.58 1026.58 1026.80 1026.65 1026.48 1026.56 1026.32 1026.09 1025.75 1025.54 1025.39 1025.22 1025.08 1024.88 1024.63 1024.41 1024.23 1023.88 1023.69 1023.28 1023.08 1022.78 1022.53 1022.29 1021.96 1021.84
1028.78 1028.72 1028.73 1028.65 1028.53 1028.37 1028.39 1028.43 1028.23 1028.03 1027.59 1027.07 1026.95 1026.71 1026.48 1026.21 1025.97 1025.85 1025.72 1025.53 1025.16 1025.04 1024.93 1024.72 1024.53 1024.36 1024.14 1023.86 1023.61 1023.40 1023.20 1023.05 1022.93 1022.45 1022.21 1021.98 1021.76 1021.67
1028.49 1028.30 1028.29 1028.27 1028.07 1027.92 1027.96 1027.94 1027.77 1027.71 1027.63 1027.20 1026.80 1026.51 1026.15 1025.78 1025.61 1025.46 1025.17 1024.93 1024.74 1024.50 1024.57 1024.47 1024.19 1023.94 1023.63 1023.29 1023.03 1022.84 1022.56 1022.41 1022.32 1022.10 1021.86 1021.67 1021.47 1021.22
1027.99 1027.91 1027.77 1027.75 1027.56 1027.52 1027.43 1027.33 1027.26 1027.30 1027.27 1027.16 1026.61 1026.32 1025.83 1025.39 1025.11 1024.85 1024.55 1024.22 1024.02 1023.94 1023.95 1023.77 1023.51 1023.28 1023.01 1022.75 1022.45 1022.25 1022.09 1021.82 1021.59 1021.37 1021.22 1021.11 1020.90 1020.72
1027.46 1027.49 1027.39 1027.36 1027.25 1027.18 1027.04 1026.97 1026.90 1026.89 1026.86 1026.69 1026.57 1026.03 1025.42 1024.84 1024.58 1024.42 1023.92 1023.55 1023.24 1023.07 1022.93 1022.85 1022.79 1022.67 1022.48 1022.21 1021.98 1021.71 1021.61 1021.42 1021.13 1020.93 1020.73 1020.50 1020.33 1020.28
1026.89 1026.85 1026.79 1026.79 1026.79 1026.76 1026.67 1026.59 1026.46 1026.30 1026.12 1025.85 1025.68 1025.37 1024.84 1024.37 1023.93 1023.60 1023.35 1022.98 1022.56 1022.48 1022.11 1021.80 1021.81 1021.55 1021.32 1021.16 1021.00 1021.02 1021.10 1020.91 1020.71 1020.44 1020.21 1020.01 1019.76 1019.53
1026.44 1026.24 1026.19 1026.15 1026.10 1025.87 1025.57 1025.63 1025.72 1025.68 1025.23 1025.05 1024.66 1024.39 1023.93 1023.55 1023.43 1023.07 1022.82 1022.39 1021.91 1021.91 1021.38 1020.96 1020.86 1020.57 1020.42 1020.22 1020.12 1020.22 1020.23 1020.13 1019.97 1019.76 1019.59 1019.38 1019.14 1018.91
1025.74 1025.67 1025.54 1025.38 1025.30 1025.10 1024.93 1024.60 1024.56 1024.37 1024.05 1023.96 1023.63 1023.56 1023.34 1022.96 1022.80 1022.49 1022.19 1021.86 1021.36 1021.13 1021.04 1020.50 1020.49 1019.84 1019.44 1019.19 1019.24 1019.27 1019.33 1019.25 1019.06 1018.80 1018.62 1018.44 1018.30 1018.18
1025.14 1025.11 1025.03 1024.81 1024.56 1024.43 1024.32 1024.04 1023.80 1023.47 1023.30 1023.09 1022.87 1022.74 1022.53 1022.45 1022.29 1021.98 1021.54 1021.05 1020.72 1020.56 1020.45 1019.51 1019.57 1018.84 1018.58 1018.31 1018.25 1018.21 1018.17 1018.00 1017.81 1017.65 1017.48 1017.33 1017.21 1017.11
1024.56 1024.32 1024.09 1023.90 1023.74 1023.67 1023.55 1023.40 1023.09 1022.61 1022.28 1022.11 1021.92 1021.72 1021.63 1021.58 1021.64 1021.38 1020.86 1020.51 1019.61 1019.23 1019.08 1018.70 1018.66 1018.07 1018.02 1017.38 1017.03 1016.97 1016.84 1016.70 1016.53 1016.41 1016.32 1016.21 1016.10 1016.00
1023.78 1023.44 1023.24 1023.07 1022.91 1022.69 1022.60 1022.50 1022.07 1021.68 1021.32 1021.04 1020.76 1020.41 1020.49 1020.37 1020.37 1020.32 1020.25 1019.87 1019.43 1018.66 1018.85 1018.62 1018.21 1017.86 1016.79 1016.20 1015.95 1015.70 1015.51 1015.42 1015.43 1015.40 1015.27 1015.02 1014.97 1014.90
1023.07 1022.65 1022.28 1022.12 1022.02 1021.77 1021.60 1021.37 1021.11 1020.90 1020.82 1020.82 1020.58 1020.32 1020.19 1020.13 1019.77 1019.60 1019.50 1019.44 1019.16 1018.45 1018.44 1018.31 1017.98 1017.64 1017.18 1015.82 1015.51 1015.51 1015.30 1014.69 1014.36 1014.15 1014.09 1013.93 1013.85 1013.82
1022.18 1021.89 1021.62 1021.40 1021.25 1021.04 1020.82 1020.87 1020.86 1020.74 1020.45 1020.02 1019.64 1019.45 1019.19 1018.98 1018.77 1018.60 1018.53 1018.55 1018.53 1018.34 1018.31 1018.11 1017.57 1017.41 1016.76 1015.62 1014.75 1014.80 1014.38 1013.82 1013.55 1013.14 1012.90 1012.66 1012.55 1012.48
1021.49 1021.16 1020.94 1020.73 1020.48 1020.40 1020.40 1020.37 1020.24 1020.02 1019.66 1019.41 1019.21 1019.02 1018.88 1018.62 1018.42 1018.30 1018.14 1017.99 1017.92 1017.74 1017.49 1017.21 1016.93 1016.64 1016.19 1015.17 1014.25 1013.95 1013.57 1013.07 1012.78 1012.31 1012.01 1011.85 1011.57 1011.37
1020.92 1020.55 1020.26 1020.12 1020.08 1020.08 1020.08 1019.97 1019.87 1019.70 1019.50 1019.24 1018.96 1018.72 1018.55 1018.37 1018.09 1017.88 1017.56 1017.37 1017.07 1016.68 1016.43 1016.22 1015.93 1015.69 1015.11 1014.54 1013.87 1013.24 1013.14 1012.40 1011.96 1011.51 1011.17 1010.73 1010.41 1010.13
1020.17 1019.81 1019.65 1019.83 1019.77 1019.67 1019.58 1019.55 1019.54 1019.42 1019.17 1018.92 1018.74 1018.55 1018.23 1017.88 1017.44 1017.12 1016.85 1016.57 1016.20 1015.80 1015.35 1015.00 1014.70 1014.49 1014.16 1013.84 1013.05 1012.50 1012.04 1011.31 1010.84 1010.38 1010.14 1009.47 1009.11 1008.89
1019.21 1019.22 1019.34 1019.45 1019.41 1019.30 1019.16 1019.03 1018.90 1018.76 1018.57 1018.37 1018.21 1018.12 1017.74 1017.35 1016.96 1016.63 1016.31 1015.93 1015.41 1014.91 1014.54 1014.07 1013.86 1013.53 1013.01 1012.38 1012.12 1011.26 1010.79 1010.33 1009.88 1009.40 1009.04 1008.53 1007.50 1007.01
1019.00 1018.97 1019.06 1019.09 1019.03 1018.98 1018.84 1018.64 1018.38 1018.18 1018.07 1017.94 1017.69 1017.44 1017.19 1016.89 1016.51 1016.02 1015.63 1015.22 1014.65 1014.23 1013.80 1013.39 1012.96 1012.59 1011.84 1010.93 1010.41 1010.02 1009.56 1009.24 1008.83 1008.39 1008.17 1007.73 1006.82 1006.00
1018.78 1018.79 1018.73 1018.67 1018.57 1018.44 1018.27 1018.05 1017.79 1017.59 1017.39 1017.17 1016.90 1016.63 1016.41 1016.13 1015.80 1015.38 1014.95 1014.50 1013.93 1013.40 1012.94 1012.50 1012.01 1011.47 1010.94 1010.21 1009.45 1009.07 1008.89 1008.46 1008.10 1007.44 1007.01 1006.50 1005.88 1005.26
1018.55 1018.50 1018.39 1018.23 1018.03 1017.87 1017.67 1017.43 1017.20 1016.89 1016.64 1016.40 1016.13 1015.84 1015.60 1015.35 1014.88 1014.52 1014.12 1013.58 1013.04 1012.52 1011.89 1011.17 1010.58 1010.32 1009.98 1009.66 1008.86 1008.05 1007.51 1007.22 1007.02 1006.63 1006.15 1005.68 1004.95 1004.23
1018.29 1018.13 1017.92 1017.71 1017.46 1017.22 1016.94 1016.67 1016.38 1016.11 1015.86 1015.58 1015.24 1015.00 1014.77 1014.49 1014.04 1013.67 1013.26 1012.71 1012.18 1011.64 1011.05 1010.47 1009.96 1009.63 1009.27 1008.67 1007.73 1007.02 1006.45 1005.96 1005.60 1005.26 1005.02 1004.75 1004.25 1003.05
1017.89 1017.64 1017.35 1017.03 1016.73 1016.43 1016.14 1015.76 1015.37 1015.02 1014.80 1014.59 1014.37 1014.13 1013.90 1013.51 1013.07 1012.62 1012.17 1011.71 1011.23 1010.73 1010.17 1009.59 1009.01 1008.48 1007.93 1007.33 1006.57 1005.93 1005.33 1004.73 1004.22 1003.74 1003.24 1003.13 1002.70 1002.12
Wind_Speed
5 5 5 4 5 5 5 5 5 4 4 2 3 2 4 5 7 9 9 11 13 14 14 14 14 14 13 13 15 16 16 16 16 16 16 16 17 18
4 6 5 5 5 5 5 6 6 7 7 4 4 6 7 8 8 9 9 13 15 14 15 14 15 15 15 15 15 15 16 17 17 18 17 17 18 18
5 6 6 6 5 5 5 6 7 7 9 9 8 9 11 10 9 8 8 9 9 14 14 16 16 16 17 17 17 17 16 16 17 18 18 19 19 19
6 7 7 5 8 7 6 8 8 8 8 12 10 9 11 10 11 10 8 7 9 12 14 16 17 18 19 19 19 19 18 18 19 19 19 20 20 21
7 7 7 8 8 7 8 8 7 7 8 8 11 10 9 9 9 9 10 10 9 13 15 16 18 18 19 19 20 20 20 20 20 20 20 20 20 20
7 8 8 8 9 10 9 10 9 9 9 9 9 11 10 10 8 9 9 8 8 8 11 14 16 18 20 21 21 21 22 21 21 21 21 21 21 22
9 9 10 12 15 14 8 10 11 10 10 9 9 10 10 10 10 8 9 10 10 9 10 9 8 8 9 13 16 19 20 21 21 21 21 21 22 23
11 11 11 14 14 19 20 22 18 12 14 11 11 12 15 11 10 9 10 10 11 9 10 9 8 9 10 10 17 20 21 21 22 22 23 23 24 24
12 11 11 9 14 13 17 20 20 22 22 13 11 10 11 11 10 12 13 13 12 10 9 11 9 12 10 11 19 21 22 23 24 24 25 25 25 25
12 12 13 13 14 14 14 14 15 15 15 12 14 13 14 13 13 13 14 15 13 10 12 13 9 12 11 10 21 23 24 25 25 25 26 26 26 26
11 13 13 14 16 19 13 13 16 15 16 22 24 25 26 25 21 10 10 11 11 10 9 11 10 12 11 13 11 22 24 25 25 25 25 26 26 26
12 13 18 16 20 20 14 13 13 14 13 15 14 16 20 18 21 14 9 11 11 13 11 12 10 10 13 10 10 9 9 15 18 22 25 26 26 13
9 10 9 16 19 20 20 13 13 14 11 8 9 7 7 10 9 10 12 11 11 13 12 11 10 8 10 13 12 11 11 12 11 13 21 25 25 22
11 10 11 18 18 21 18 15 14 14 10 10 10 10 11 10 10 11 13 12 11 14 13 14 8 9 11 13 13 9 10 10 10 11 11 18 26 27
10 13 18 20 22 13 14 15 18 10 10 10 10 11 10 10 12 11 11 13 13 14 12 15 12 11 11 13 14 11 14 11 10 12 11 12 12 11
14 12 14 15 15 11 12 10 8 8 8 9 10 9 9 9 9 9 9 9 9 9 11 14 14 14 12 12 12 11 11 13 10 11 11 12 12 12
13 10 6 5 7 7 8 8 7 8 8 8 8 9 9 9 10 9 8 9 9 9 9 9 11 13 12 14 13 11 11 12 11 12 12 12 12 14
9 4 4 6 7 7 7 8 8 9 9 9 8 9 9 9 9 8 8 9 9 9 9 9 8 8 9 12 19 13 12 12 11 11 11 13 14 12
3 5 5 6 6 7 7 8 9 8 9 9 9 9 9 9 11 9 9 9 10 9 9 9 9 9 10 11 9 18 11 11 10 10 10 11 14 14
4 5 6 6 7 7 8 8 8 8 8 9 9 9 9 9 9 9 9 10 10 10 10 10 10 11 11 12 12 10 15 12 11 12 12 12 13 24
5 6 6 7 7 8 8 8 9 9 9 8 9 9 9 9 10 10 10 16 16 10 11 11 11 20 10 10 11 12 11 20 20 14 12 13 14 13
6 7 7 8 8 8 8 8 9 9 9 8 9 9 9 9 10 11 10 10 10 10 11 11 12 10 10 11 14 16 13 12 16 24 26 25 14 17
8 8 8 8 8 8 9 9 9 9 9 9 9 9 9 9 10 10 10 11 11 11 12 12 11 11 12 13 18 13 19 17 12 13 13 23 27 29
Wind_Direction
242 242 238 237 237 240 244 248 251 278 278 259 282 185 293 305 317 313 308 308 309 303 304 305 305 303 304 307 308 310 309 307 304 302 300 300 302 302
251 246 245 240 241 238 242 238 236 252 262 270 270 286 292 295 296 293 291 299 293 296 298 298 295 292 293 294 296 298 301 304 303 302 301 300 299 299
244 253 255 254 252 249 242 244 243 243 257 271 278 283 287 286 287 283 287 286 287 286 288 292 291 288 288 290 290 294 294 295 297 300 301 302 301 298
264 260 259 255 254 249 248 250 246 247 255 267 277 281 280 285 287 287 281 277 277 278 282 283 284 282 281 282 285 287 291 292 292 292 294 295 297 297
268 268 269 266 265 263 257 255 253 253 257 261 277 282 280 276 274 276 278 276 272 272 269 271 273 275 279 280 279 280 281 286 289 291 293 292 294 295
274 268 268 263 264 265 260 257 261 262 262 257 257 274 277 280 277 276 276 268 280 281 273 267 272 274 274 271 270 270 272 275 280 284 286 288 290 291
274 271 269 268 266 262 260 257 254 251 254 252 248 255 272 276 270 278 278 282 281 282 283 274 269 272 271 270 267 266 267 267 269 273 275 279 284 288
274 275 274 270 269 268 263 252 240 237 247 250 252 247 254 270 271 274 279 283 290 286 273 270 274 275 277 272 272 271 272 272 270 269 269 271 275 281
262 266 266 263 260 262 263 266 269 270 268 268 267 260 255 248 266 277 279 277 280 281 283 277 282 276 276 270 268 266 267 270 272 269 268 270 272 273
265 265 260 264 264 264 270 271 269 267 265 262 262 259 259 262 262 269 274 278 277 279 266 270 272 276 281 278 275 271 269 269 270 269 268 270 270 271
267 263 266 266 268 268 266 262 264 266 264 264 263 266 267 261 259 259 261 269 275 273 275 287 282 280 283 278 273 273 273 273 272 270 269 268 270 270
263 261 259 260 264 264 257 261 263 266 266 271 269 256 255 260 271 266 268 270 278 279 276 275 278 284 287 268 264 266 263 262 266 270 270 268 269 269
258 261 264 266 272 272 274 268 267 276 290 287 274 274 274 258 249 253 256 261 269 271 280 278 270 269 271 287 281 277 278 274 268 267 267 268 270 267
261 267 266 269 272 272 278 294 293 292 282 278 275 273 273 272 269 269 266 262 260 269 274 272 273 270 273 278 282 280 274 275 271 265 262 265 270 268
268 270 272 270 272 282 280 287 298 288 282 277 273 273 272 276 278 274 270 268 269 266 265 264 261 259 256 264 275 278 285 279 270 267 264 263 264 265
263 266 267 273 283 284 289 285 284 282 278 275 275 278 282 280 272 266 264 265 265 262 252 250 255 258 261 261 267 275 272 271 270 263 261 259 259 259
256 253 242 237 258 268 270 271 269 266 265 268 273 274 272 272 269 267 264 265 264 269 270 260 248 248 252 260 268 269 269 269 271 270 263 265 260 261
279 216 248 264 268 274 273 272 267 266 264 264 263 265 268 271 277 275 271 264 265 269 274 272 270 268 259 251 247 262 265 266 268 271 268 265 265 258
256 272 266 266 272 274 270 267 268 266 268 264 264 265 266 267 275 273 272 271 268 269 266 269 267 266 270 269 269 259 267 271 275 272 272 269 273 274
266 269 273 274 273 273 273 271 271 269 265 262 262 260 258 261 265 265 269 271 269 270 272 267 260 258 257 267 278 278 269 271 266 269 272 269 269 275
276 271 271 272 273 274 274 273 269 268 267 264 262 259 258 258 261 264 264 269 269 269 270 269 267 272 277 281 270 267 259 248 248 258 266 270 275 278
278 276 273 270 270 270 271 267 265 263 261 260 260 262 261 260 259 260 261 264 263 264 265 269 274 270 266 263 268 271 269 265 262 260 261 262 266 271
274 275 274 273 271 271 268 265 260 257 256 256 255 257 255 258 255 257 259 259 262 264 265 268 265 263 260 262 265 268 267 269 270 270 264 263 262 265